[ hide orbit diagram ]
For accurate long-term ephemerides, please instead use our Horizons system.This orbit viewer was implemented using two-body methods, and hence should not be used for determining accurate long-term trajectories (over several years or decades) or planetary encounter circumstances.
Orbital Elements at Epoch 2459200.5 (2020-Dec-17.0) TDB
Reference: JPL 34 (heliocentric ecliptic J2000)
Element | Value | Uncertainty (1-sigma) | Units |
e | .1660893357180641 | 1.0331e-08 | |
a | 3.154296447551545 | 1.2493e-08 | au |
q | 2.630401445919859 | 2.9852e-08 | au |
i | 1.893318076264106 | 5.2104e-07 | deg |
node | 127.3532105961419 | 2.686e-05 | deg |
peri | 249.8457292367336 | 2.8622e-05 | deg |
M | 9.240716873263736 | 7.1721e-06 | deg |
tp | 2459147.976295363647 (2020-Oct-25.47629536) | 4.0773e-05 | TDB |
period | 2046.219349474414 5.60 | 1.2157e-05 3.328e-08 | d yr |
n | .175934217459369 | 1.0453e-09 | deg/d |
Q | 3.678191449183231 | 1.4568e-08 | au |
|
| | Orbit Determination Parameters
Additional Information
|
[ show covariance matrix ]
Physical Parameter Table
Parameter |
Symbol |
Value |
Units |
Sigma |
Reference |
Notes |
absolute magnitude |
H |
12.21 |
|
n/a |
E2021B10 |
|
diameter |
diameter |
17.536 |
km |
0.127 |
urn:nasa:pds:neowise_diameters_albedos::2.0[mainbelt] (http://adsabs.harvard.edu/abs/2011ApJ...741...68M) |
|
geometric albedo |
albedo |
0.069 |
|
0.015 |
urn:nasa:pds:neowise_diameters_albedos::2.0[mainbelt] (http://adsabs.harvard.edu/abs/2011ApJ...741...68M) |
|
|
4193 Salanave | Discovered 1981 Sept. 26 by B. A. Skiff and N. G. Thomas at the Anderson Mesa Station of the Lowell Observatory. |
Originally a meteorologist, as first executive officer of the Astronomical Society of the Pacific and first editor of Mercury, Leon E. Salanave took steps to ensure that amateur astronomers felt a sense of "belonging" to an organization dominated by professionals. The name was suggested by W. J. Westbrooke. |
NOTE: some special characters may not display properly (any characters within {} are an attempt to place the proper accent above a character) |
Reference: 20000523/MPCPages.arc | Last Updated: 2013-03-29 |
|
[ show close-approach data ]
|